[[{"header":{"parameterUnit":"m.s-1","parameterCategory":1,"la1":30.2991,"la2":30.254,"lo1":-89.0895,"lo2":-89.0444,"dy":0.0017,"dx":0.0017,"nx":28,"ny":28,"refTime":"2023-07-27T03:00:00:Z","depth":0,"parameterNumber":2,"parameterNumberName":"U-component_of_WINDS"},"data":[0,0,0,0,0,0,0,0,0,0,0,0,0,0,0,0,0,0,0,0,0,0,0,0,0,0,0,0,0,0,0,0,0,0,0,0,0,0,0,0,0,0,0,0,0,0,0,0,0,0,0,0,0,0,0,0,0,0,-0.4967,-0.4966,0,-0.4884,-0.4883,-0.4882,-0.4846,-0.4847,-0.4847,-0.4847,-0.4761,-0.4759,-0.4756,0,0,0,0,0,0,0,0,0,0,0,0,0,-0.5098,-0.5095,-0.4967,-0.4966,-0.4965,-0.4884,-0.4883,-0.4882,-0.4846,-0.4847,-0.4847,-0.4847,-0.4762,-0.4759,-0.4756,0,0,0,0,0,0,0,0,0,0,0,0,0,-0.503,-0.5095,-0.4967,-0.4938,-0.4934,-0.4884,-0.4883,-0.4881,-0.4846,-0.4847,-0.4847,-0.4847,-0.4763,-0.4759,-0.4756,-0.4729,0,0,-0.4745,-0.4743,0,0,0,0,0,0,0,0,-0.5034,-0.5026,-0.4943,-0.494,-0.4936,-0.4876,-0.4897,-0.483,-0.4846,-0.488,-0.4847,-0.4847,-0.4799,-0.4792,-0.4776,-0.4725,-0.4721,-0.4744,-0.4742,-0.4741,-0.474,0,0,0,0,0,0,0,-0.5039,-0.5029,-0.4934,-0.4942,-0.4937,-0.4929,-0.492,-0.4884,-0.4839,-0.4877,-0.4874,-0.4865,-0.4797,-0.478,-0.4774,-0.472,-0.4744,-0.4741,-0.4739,-0.4738,-0.4644,-0.4644,0,0,0,0,0,0,-0.5048,-0.5033,-0.4937,-0.4932,-0.4987,-0.4927,-0.4916,-0.4895,-0.4839,-0.4831,-0.4865,-0.4863,-0.4786,-0.4778,-0.4771,-0.4736,-0.4741,-0.4737,-0.4735,-0.4645,-0.4644,-0.4644,0,0,0,0,0,0,-0.5051,-0.504,-0.494,-0.4982,-0.4968,-0.4924,-0.49,-0.4893,-0.4876,-0.483,-0.4822,-0.4855,-0.4786,-0.4776,-0.474,-0.4733,-0.4736,-0.4732,-0.4645,-0.4644,-0.4644,-0.4667,0,0,0,0,0,0,-0.5055,-0.5041,-0.503,-0.4982,-0.4966,-0.491,-0.49,-0.4891,-0.487,-0.4867,-0.4819,-0.4811,-0.4785,-0.4746,-0.4736,-0.4728,-0.4729,-0.4645,-0.4645,-0.4644,-0.4667,-0.4667,-0.4668,0,0,0,0,0,-0.506,-0.5039,-0.503,-0.5018,-0.4951,-0.491,-0.4901,-0.4871,-0.4869,-0.4858,-0.4829,-0.4813,-0.4736,-0.4742,-0.4732,-0.4722,-0.4646,-0.4645,-0.4644,-0.4666,-0.4667,-0.4668,0,0,0,0,0,0,-0.5087,-0.5032,-0.5021,-0.4984,-0.4952,-0.4904,-0.4888,-0.4873,-0.4841,-0.484,-0.4805,-0.4794,-0.4761,-0.4738,-0.4746,-0.4694,-0.4689,-0.4687,-0.471,-0.4711,-0.4711,-0.4717,-0.4726,0,0,0,0,0,-0.5089,-0.506,-0.5014,-0.4985,-0.497,-0.4932,-0.4913,-0.4893,-0.4859,-0.4845,-0.4813,-0.478,-0.4749,-0.4729,-0.4697,-0.4664,-0.4654,-0.4652,-0.4653,-0.4654,-0.4652,-0.4634,-0.4633,-0.4642,-0.4642,-0.4642,0,0,-0.5092,-0.5058,-0.5042,-0.499,-0.4963,-0.4934,-0.4921,-0.489,-0.4869,-0.484,-0.4804,-0.4781,-0.4742,-0.4708,-0.4691,-0.4687,-0.4648,-0.4653,-0.4654,-0.4651,-0.4633,-0.4633,-0.4632,-0.4641,-0.4641,-0.4641,0,0,-0.5082,-0.5054,-0.5028,-0.5002,-0.4961,-0.4937,-0.4931,-0.4886,-0.4869,-0.4833,-0.4811,-0.4786,-0.4732,-0.4706,-0.4685,-0.467,-0.4654,-0.4661,-0.4664,-0.4647,-0.4646,-0.4646,-0.4641,-0.4639,-0.4659,-0.4659,-0.4659,0,-0.5091,-0.5046,-0.5017,-0.4988,-0.4966,-0.4941,-0.4915,-0.4891,-0.4842,-0.4828,-0.4825,-0.4758,-0.473,-0.469,-0.4687,-0.4671,-0.4664,-0.4665,-0.4649,-0.4648,-0.4647,-0.4642,-0.464,-0.466,-0.466,-0.466,-0.4659,0,-0.506,-0.5029,-0.5013,-0.4968,-0.4945,-0.4917,-0.4885,-0.4865,-0.4848,-0.4825,-0.4789,-0.4755,-0.4717,-0.4707,-0.4689,-0.4665,-0.4664,-0.4656,-0.465,-0.4647,-0.4642,-0.464,-0.4661,-0.4661,-0.4661,-0.466,0,0,-0.5062,-0.5003,-0.4997,-0.4977,-0.4932,-0.4908,-0.4881,-0.4844,-0.4829,-0.4797,-0.4774,-0.473,-0.4723,-0.47,-0.468,-0.4666,-0.4657,-0.4659,-0.4658,-0.466,-0.4629,-0.4635,-0.4633,-0.4647,-0.4647,-0.4646,-0.4632,0,-0.5047,-0.4996,-0.497,-0.4931,-0.4903,-0.488,-0.4856,-0.4827,-0.4805,-0.4779,-0.4755,-0.4725,-0.4717,-0.4703,-0.4688,-0.4661,-0.465,-0.4662,-0.4626,-0.4625,-0.4635,-0.463,-0.4636,-0.4624,-0.463,-0.463,-0.4629,0,-0.5021,-0.499,-0.4948,-0.4909,-0.4896,-0.4875,-0.4841,-0.4816,-0.4783,-0.4768,-0.4744,-0.4726,-0.4697,-0.4695,-0.4656,-0.4665,-0.4649,-0.4635,-0.4633,-0.4628,-0.4626,-0.4625,-0.462,-0.4618,-0.4626,-0.4626,-0.4626,0,-0.5027,-0.4976,-0.4944,-0.4928,-0.4881,-0.4867,-0.4847,-0.4814,-0.4794,-0.4765,-0.4752,-0.4719,-0.4701,-0.4677,-0.4651,-0.4652,-0.4615,-0.461,-0.4602,-0.4603,-0.4594,-0.4595,-0.4586,-0.4585,-0.4585,-0.4585,-0.4585,0,-0.5012,-0.4987,-0.4947,-0.4927,-0.49,-0.4871,-0.4845,-0.4823,-0.4795,-0.4772,-0.475,-0.4729,-0.4696,-0.4671,-0.465,-0.4622,-0.4614,-0.4602,-0.4596,-0.4603,-0.4605,-0.4591,-0.4591,-0.4585,-0.4585,-0.4585,-0.4585,0,-0.5013,-0.4985,-0.495,-0.4909,-0.4898,-0.488,-0.4845,-0.4826,-0.4804,-0.4776,-0.4767,-0.4733,-0.4703,-0.4675,-0.4634,-0.4621,-0.4592,-0.4585,-0.4603,-0.46,-0.4593,-0.4594,-0.4575,-0.4571,-0.4574,-0.4574,-0.4574,0,-0.5005,-0.4985,-0.4943,-0.4926,-0.4907,-0.488,-0.486,-0.4832,-0.4813,-0.4775,-0.4761,-0.473,-0.4703,-0.4656,-0.4628,-0.4598,-0.459,-0.4586,-0.4585,-0.4593,-0.459,-0.4591,-0.459,-0.4586,-0.4586,-0.4586,-0.4586,0,-0.4993,-0.4981,-0.4953,-0.4921,-0.4899,-0.4872,-0.4845,-0.4833,-0.48,-0.478,-0.4749,-0.4729,-0.4689,-0.4658,-0.4625,-0.4605,-0.459,-0.4587,-0.4583,-0.4589,-0.4601,-0.4595,-0.4604,-0.4587,-0.4587,-0.4587,-0.4587,-0.4587,-0.4989,-0.4971,-0.4939,-0.491,-0.4887,-0.4863,-0.4844,-0.482,-0.4794,-0.4759,-0.4745,-0.4714,-0.4684,-0.4639,-0.4619,-0.4596,-0.4592,-0.4587,-0.4585,-0.4584,-0.4586,-0.4606,-0.459,-0.4589,-0.4589,-0.4589,-0.4589,0,-0.4976,-0.4955,-0.4928,-0.4892,-0.4869,-0.4859,-0.4829,-0.4811,-0.4784,-0.4757,-0.4732,-0.4698,-0.4669,-0.464,-0.461,-0.4596,-0.4589,-0.4589,-0.4589,-0.4585,-0.4591,-0.4597,-0.4596,-0.4596,-0.4596,-0.4596,-0.4596,-0.4596,-0.4967,-0.4937,-0.4921,-0.4881,-0.486,-0.4829,-0.4814,-0.4792,-0.477,-0.4733,-0.4709,-0.4691,-0.4664,-0.4632,-0.4605,-0.4598,-0.4587,-0.459,-0.458,-0.4585,-0.4585,-0.4584,-0.459,-0.4588,-0.4588,-0.4577,-0.4577,-0.4577]},{"header":{"parameterUnit":"m.s-1","parameterCategory":1,"la1":30.2991,"la2":30.254,"lo1":-89.0895,"lo2":-89.0444,"dy":0.0017,"dx":0.0017,"nx":28,"ny":28,"refTime":"2023-07-27T03:00:00:Z","depth":0,"parameterNumber":3,"parameterNumberName":"V-component_of_WINDS"},"data":[0,0,0,0,0,0,0,0,0,0,0,0,0,0,0,0,0,0,0,0,0,0,0,0,0,0,0,0,0,0,0,0,0,0,0,0,0,0,0,0,0,0,0,0,0,0,0,0,0,0,0,0,0,0,0,0,0,0,3.2437,3.2437,0,3.2425,3.2424,3.2424,3.248,3.2481,3.2483,3.2484,3.2466,3.2464,3.2462,0,0,0,0,0,0,0,0,0,0,0,0,0,3.2502,3.25,3.2437,3.2437,3.2436,3.2425,3.2424,3.2424,3.2479,3.2481,3.2483,3.2485,3.2467,3.2465,3.2462,0,0,0,0,0,0,0,0,0,0,0,0,0,3.248,3.25,3.2437,3.2463,3.2465,3.2425,3.2424,3.2424,3.2479,3.2481,3.2484,3.2486,3.2468,3.2465,3.2462,3.2395,0,0,3.2453,3.2451,0,0,0,0,0,0,0,0,3.2481,3.2477,3.2459,3.2461,3.2463,3.2456,3.2441,3.2414,3.2478,3.2473,3.2484,3.2487,3.2461,3.2458,3.2451,3.2394,3.2393,3.2452,3.2451,3.2449,3.2449,0,0,0,0,0,0,0,3.2482,3.2478,3.2432,3.2459,3.2461,3.2473,3.2473,3.2436,3.2453,3.2474,3.2478,3.2476,3.2462,3.2453,3.2451,3.2393,3.2453,3.245,3.2448,3.2447,3.2278,3.2275,0,0,0,0,0,0,3.2481,3.2479,3.2432,3.2431,3.2478,3.247,3.2469,3.2456,3.2454,3.2456,3.2474,3.2479,3.2457,3.2454,3.245,3.2369,3.2449,3.2447,3.2445,3.228,3.2277,3.2274,0,0,0,0,0,0,3.2482,3.2477,3.2433,3.2456,3.2452,3.2466,3.245,3.2454,3.2446,3.2454,3.2457,3.2462,3.2459,3.2454,3.2408,3.237,3.2445,3.2443,3.2284,3.2279,3.2276,3.2208,0,0,0,0,0,0,3.2484,3.2477,3.2453,3.2455,3.245,3.2392,3.2448,3.2452,3.2441,3.2447,3.2444,3.2445,3.2461,3.2412,3.2405,3.2367,3.244,3.2287,3.2282,3.2277,3.2214,3.2202,3.2193,0,0,0,0,0,3.2486,3.2433,3.2451,3.2445,3.2421,3.239,3.2387,3.2407,3.2438,3.2412,3.2418,3.2445,3.2376,3.2407,3.2399,3.236,3.2289,3.2283,3.2277,3.2219,3.2205,3.2193,0,0,0,0,0,0,3.2424,3.2434,3.2454,3.2401,3.2394,3.2399,3.2368,3.2392,3.2375,3.2381,3.2405,3.2404,3.2353,3.2352,3.2387,3.2293,3.2337,3.233,3.2295,3.2282,3.2272,3.2272,3.2438,0,0,0,0,0,3.2404,3.238,3.239,3.2342,3.2338,3.2353,3.2341,3.2357,3.235,3.2347,3.2349,3.234,3.2316,3.2299,3.2278,3.2215,3.2213,3.2184,3.2173,3.2164,3.2156,3.2121,3.2107,3.2254,3.2254,3.2254,0,0,3.2362,3.2365,3.2348,3.2329,3.2326,3.2298,3.235,3.2319,3.2298,3.2342,3.2298,3.2299,3.2291,3.2235,3.2211,3.2233,3.2116,3.2157,3.2149,3.2146,3.2113,3.2099,3.2086,3.225,3.2251,3.2252,0,0,3.2272,3.2273,3.2232,3.2228,3.2223,3.2234,3.2224,3.2226,3.2229,3.2186,3.2217,3.2192,3.2151,3.2143,3.2133,3.2039,3.2063,3.2032,3.1975,3.194,3.1928,3.1918,3.1882,3.1869,3.2024,3.2024,3.2024,0,3.222,3.2182,3.2208,3.2174,3.2164,3.2204,3.2162,3.2156,3.2143,3.2134,3.216,3.2108,3.2106,3.2048,3.2025,3.2017,3.2004,3.2031,3.1928,3.1918,3.1909,3.1875,3.1862,3.202,3.2021,3.2021,3.2021,0,3.2117,3.209,3.2057,3.2046,3.2032,3.1994,3.2012,3.1995,3.2013,3.202,3.1974,3.1973,3.195,3.1938,3.1955,3.1882,3.1896,3.1924,3.1969,3.189,3.1859,3.1846,3.2014,3.2016,3.2017,3.2018,0,0,3.1986,3.199,3.1977,3.1971,3.1969,3.1947,3.191,3.1891,3.1874,3.1864,3.1832,3.1796,3.1823,3.1812,3.1828,3.1797,3.172,3.1829,3.1829,3.1807,3.1637,3.1614,3.1598,3.1737,3.1735,3.1733,3.1637,0,3.1895,3.1835,3.1856,3.1793,3.1767,3.1805,3.1772,3.1766,3.1772,3.1749,3.1755,3.1728,3.1766,3.176,3.1732,3.1736,3.1686,3.1743,3.1705,3.1703,3.1703,3.1582,3.1558,3.1467,3.1625,3.1623,3.1622,0,3.1782,3.1769,3.1703,3.1704,3.1694,3.1664,3.1647,3.1626,3.1619,3.1625,3.1613,3.1635,3.1597,3.1643,3.1589,3.1627,3.1613,3.1613,3.161,3.1605,3.1656,3.1572,3.1439,3.1425,3.1603,3.1604,3.1606,0,3.1689,3.1655,3.1611,3.1605,3.1606,3.1584,3.1583,3.1579,3.1565,3.155,3.1541,3.1521,3.1509,3.1492,3.1507,3.154,3.1449,3.1498,3.1451,3.145,3.1429,3.1429,3.1289,3.1423,3.1423,3.1424,3.1424,0,3.1585,3.1542,3.1569,3.1542,3.1495,3.152,3.1472,3.1475,3.1471,3.1443,3.1475,3.1447,3.1471,3.1445,3.1456,3.1408,3.1403,3.1405,3.1408,3.1401,3.14,3.139,3.1396,3.142,3.1421,3.1422,3.1422,0,3.1473,3.1489,3.1443,3.1448,3.1449,3.1413,3.1417,3.139,3.1399,3.1363,3.1356,3.1369,3.134,3.1354,3.1324,3.1332,3.1269,3.1282,3.1272,3.1274,3.1226,3.1229,3.1073,3.1052,3.1201,3.12,3.1199,0,3.1404,3.1372,3.1374,3.1358,3.1356,3.133,3.1317,3.134,3.1324,3.1314,3.1288,3.1262,3.1243,3.1194,3.1199,3.1176,3.1187,3.1133,3.1183,3.1176,3.1183,3.1184,3.1179,3.1122,3.1121,3.1119,3.1118,0,3.1278,3.1288,3.1269,3.1251,3.1235,3.1222,3.1211,3.1196,3.1219,3.1199,3.1171,3.1156,3.1126,3.1099,3.1078,3.1075,3.1099,3.1103,3.1091,3.1081,3.1076,3.1076,3.1242,3.1106,3.1107,3.1108,3.1109,3.1109,3.1184,3.1157,3.1154,3.1131,3.1126,3.1115,3.109,3.1096,3.1074,3.1052,3.1067,3.1033,3.1025,3.1,3.0994,3.0966,3.0987,3.097,3.0965,3.0959,3.0952,3.1083,3.0963,3.0963,3.0963,3.0964,3.0964,0,3.1059,3.1059,3.1037,3.1022,3.1003,3.1031,3.102,3.1001,3.0972,3.0964,3.0944,3.0911,3.0885,3.0888,3.0864,3.0841,3.0851,3.0834,3.0834,3.0832,3.0936,3.0948,3.0826,3.0826,3.0826,3.0826,3.0826,3.0826,3.0991,3.0946,3.0956,3.0908,3.0908,3.0877,3.0868,3.0858,3.0851,3.0813,3.0792,3.0796,3.0791,3.0767,3.0743,3.0745,3.0733,3.0711,3.0716,3.0812,3.0826,3.0838,3.085,3.0709,3.0709,3.0615,3.0614,3.0613]}]]